EW1587 Weather Reports


Display with metric or nautical units.
time (UTC)temp
F
wind
direction
speed
MPH
gust
MPH
rain 1hr
in
rain 24hr
in
rain mn
in
humidity
%
barometer
mb
20260508022012 50 273 0.0 1.0 0.00 0.00 0.00 44 1010.3
20260508021513 50 273 0.0 1.0 0.00 0.00 0.00 44 1010.2
20260508021013 50 277 0.0 1.0 0.00 0.00 0.00 44 1010.2
20260508020511 50 274 0.0 1.0 0.00 0.00 0.00 43 1010.2
20260508020011 51 274 0.0 1.0 0.00 0.00 0.00 43 1010.2
20260508015511 51 274 0.0 1.0 0.00 0.00 0.00 42 1010.1
20260508015011 52 246 0.0 1.0 0.00 0.00 0.00 40 1010.1
20260508014511 52 281 0.0 2.0 0.00 0.00 0.00 38 1010.1
20260508014011 53 287 0.0 2.0 0.00 0.00 0.00 36 1010.0
20260508013514 53 297 0.0 3.0 0.00 0.00 0.00 36 1010.0
20260508013010 53 283 1.0 4.0 0.00 0.00 0.00 36 1010.0
20260508012510 54 284 1.0 4.0 0.00 0.00 0.00 35 1009.9
20260508012011 54 294 1.0 4.0 0.00 0.00 0.00 35 1010.0
20260508011509 54 284 2.0 5.0 0.00 0.00 0.00 34 1009.9
20260508011009 54 277 2.0 5.0 0.00 0.00 0.00 33 1009.9
20260508010508 55 290 2.0 8.0 0.00 0.00 0.00 33 1009.9
20260508010010 55 301 3.0 9.0 0.00 0.00 0.00 32 1009.8
20260508005508 55 302 3.0 9.0 0.00 0.00 0.00 32 1009.9
20260508005010 56 288 3.0 10.0 0.00 0.00 0.00 32 1009.8
20260508004507 56 283 2.0 13.0 0.00 0.00 0.00 32 1009.8
20260508004012 56 303 5.0 13.0 0.00 0.00 0.00 32 1009.7
20260508003510 56 269 5.0 12.0 0.00 0.00 0.00 31 1009.8
20260508003006 56 307 7.0 13.0 0.00 0.00 0.00 31 1009.8
20260508002508 57 334 5.0 13.0 0.00 0.00 0.00 31 1009.8
20260508002005 57 305 6.0 11.0 0.00 0.00 0.00 31 1009.8
20260508001504 57 253 3.0 12.0 0.00 0.00 0.00 31 1009.8
20260508001004 57 294 4.0 13.0 0.00 0.00 0.00 30 1009.9
20260508000504 57 323 5.0 13.0 0.00 0.00 0.00 29 1009.9
20260508000004 57 294 6.0 13.0 0.00 0.00 0.00 30 1010.0
20260507235508 57 269 3.0 14.0 0.00 0.00 0.00 31 1010.0
20260507235003 57 316 6.0 14.0 0.00 0.00 0.00 30 1010.0
20260507234504 57 328 7.0 14.0 0.00 0.00 0.00 30 1010.0
20260507234002 57 252 2.0 9.0 0.00 0.00 0.00 29 1010.0
20260507233502 57 333 2.0 12.0 0.00 0.00 0.00 29 1010.0
20260507233002 57 315 4.0 16.0 0.00 0.00 0.00 31 1010.0
20260507232503 57 305 8.0 16.0 0.00 0.00 0.00 30 1010.1
20260507232100 58 285 7.0 13.0 0.00 0.00 0.00 29 1010.1
20260507231601 58 285 6.0 11.0 0.00 0.00 0.00 29 1010.1
20260507231059 58 281 7.0 12.0 0.00 0.00 0.00 30 1010.2
20260507230602 57 25 3.0 19.0 0.00 0.00 0.00 30 1010.3
20260507230105 57 357 11.0 19.0 0.00 0.00 0.00 30 1010.3
20260507225558 57 316 10.0 16.0 0.00 0.00 0.00 31 1010.3
20260507225057 57 287 7.0 15.0 0.00 0.00 0.00 32 1010.3
20260507224603 57 287 7.0 14.0 0.00 0.00 0.00 30 1010.4
20260507224056 57 288 7.0 11.0 0.00 0.00 0.00 30 1010.4
20260507223556 57 335 4.0 11.0 0.00 0.00 0.00 29 1010.5
20260507223055 57 284 5.0 15.0 0.00 0.00 0.00 29 1010.6
20260507222557 57 294 6.0 16.0 0.00 0.00 0.00 29 1010.5
20260507222055 57 278 10.0 16.0 0.00 0.00 0.00 29 1010.5
20260507221553 57 278 7.0 13.0 0.00 0.00 0.00 29 1010.6
20260507221054 57 339 4.0 16.0 0.00 0.00 0.00 29 1010.6
20260507220551 57 266 7.0 16.0 0.00 0.00 0.00 29 1010.8
20260507220051 56 273 6.0 15.0 0.00 0.00 0.00 30 1010.7
20260507215551 56 238 5.0 15.0 0.00 0.00 0.00 29 1010.8
20260507215050 57 288 11.0 20.0 0.00 0.00 0.00 29 1010.8
20260507214602 57 294 7.0 19.0 0.00 0.00 0.00 32 1010.7
20260507214050 56 269 6.0 10.0 0.00 0.00 0.00 29 1010.8
20260507213549 56 328 3.0 14.0 0.00 0.00 0.00 29 1010.9
20260507213048 56 295 6.0 18.0 0.00 0.00 0.00 30 1010.9
20260507212548 56 255 8.0 18.0 0.00 0.00 0.00 29 1011.0
20260507212047 56 280 6.0 11.0 0.00 0.00 0.00 30 1011.0
20260507211550 55 358 1.0 10.0 0.00 0.00 0.00 29 1011.0
20260507211046 56 278 4.0 14.0 0.00 0.00 0.00 28 1011.1
20260507210546 56 353 6.0 19.0 0.00 0.00 0.00 29 1011.2
20260507210047 55 245 11.0 19.0 0.00 0.00 0.00 32 1010.8
20260507205544 55 287 13.0 19.0 0.00 0.00 0.00 31 1011.1
20260507205043 55 269 8.0 18.0 0.00 0.00 0.00 29 1011.1
20260507204542 55 299 5.0 17.0 0.00 0.00 0.00 29 1011.3
20260507204045 55 270 11.0 17.0 0.00 0.00 0.00 30 1011.4
20260507203540 55 257 3.0 10.0 0.00 0.00 0.00 29 1011.5
20260507203054 55 271 3.0 16.0 0.00 0.00 0.00 30 1011.5
20260507202539 55 293 6.0 16.0 0.00 0.00 0.00 30 1011.7
20260507202037 55 276 3.0 11.0 0.00 0.00 0.00 29 1011.7
20260507201537 55 301 2.0 11.0 0.00 0.00 0.00 30 1011.7
20260507201036 54 93 2.0 9.0 0.00 0.00 0.00 30 1011.8
20260507200537 55 280 3.0 12.0 0.00 0.00 0.00 30 1011.9
20260507200134 55 324 3.0 12.0 0.00 0.00 0.00 29 1012.0
20260507195534 54 301 4.0 11.0 0.00 0.00 0.00 31 1012.0
20260507195036 54 326 6.0 13.0 0.00 0.00 0.00 29 1012.0
20260507194534 54 242 6.0 13.0 0.00 0.00 0.00 30 1012.1
20260507194032 54 226 1.0 9.0 0.00 0.00 0.00 31 1012.1
20260507193533 54 255 4.0 10.0 0.00 0.00 0.00 29 1012.2
20260507193030 53 256 5.0 15.0 0.00 0.00 0.00 30 1012.2
20260507192532 54 236 10.0 15.0 0.00 0.00 0.00 29 1012.2
20260507192034 54 74 1.0 15.0 0.00 0.00 0.00 30 1012.2
20260507191528 54 262 6.0 15.0 0.00 0.00 0.00 30 1012.4
20260507191027 54 285 2.0 9.0 0.00 0.00 0.00 30 1012.3
20260507190529 53 29 2.0 12.0 0.00 0.00 0.00 30 1012.4
20260507190027 53 273 4.0 14.0 0.00 0.00 0.00 32 1012.5
20260507185529 53 284 5.0 14.0 0.00 0.00 0.00 31 1012.4
20260507185024 53 277 3.0 12.0 0.00 0.00 0.00 32 1012.4
20260507184523 52 283 5.0 12.0 0.00 0.00 0.00 30 1012.4
20260507184023 52 34 2.0 9.0 0.00 0.00 0.00 32 1012.5
20260507183522 52 305 2.0 11.0 0.00 0.00 0.00 30 1012.6
20260507183021 52 323 6.0 15.0 0.00 0.00 0.00 30 1012.7
20260507182521 52 283 10.0 15.0 0.00 0.00 0.00 30 1012.7
20260507182020 52 293 0.0 11.0 0.00 0.00 0.00 32 1012.7
20260507181524 51 58 4.0 11.0 0.00 0.00 0.00 32 1012.8
20260507181019 51 295 6.0 13.0 0.00 0.00 0.00 30 1012.8
20260507180517 51 329 4.0 17.0 0.00 0.00 0.00 32 1012.9
20260507180023 51 299 8.0 17.0 0.00 0.00 0.00 31 1012.8
20260507175517 51 311 7.0 14.0 0.00 0.00 0.00 31 1012.9
20260507175116 51 263 8.0 12.0 0.00 0.00 0.00 31 1012.8
20260507174515 50 273 7.0 13.0 0.00 0.00 0.00 32 1013.0
20260507174014 50 276 7.0 12.0 0.00 0.00 0.00 33 1013.1
20260507173514 50 320 4.0 13.0 0.00 0.00 0.00 32 1013.2
20260507173027 50 312 3.0 13.0 0.00 0.00 0.00 32 1013.3
20260507172513 50 311 4.0 12.0 0.00 0.00 0.00 33 1013.3
20260507172011 50 300 4.0 15.0 0.00 0.00 0.00 32 1013.2
20260507171511 50 278 8.0 15.0 0.00 0.00 0.00 32 1013.3
20260507171012 50 288 5.0 8.0 0.00 0.00 0.00 32 1013.4
20260507170510 50 281 1.0 5.0 0.00 0.00 0.00 34 1013.4
20260507170008 49 118 1.0 8.0 0.00 0.00 0.00 33 1013.4
20260507165510 49 280 5.0 13.0 0.00 0.00 0.00 32 1013.5
20260507165010 49 314 6.0 14.0 0.00 0.00 0.00 33 1013.5
20260507164508 49 290 7.0 16.0 0.00 0.00 0.00 33 1013.5
20260507164007 49 278 8.0 16.0 0.00 0.00 0.00 33 1013.5
20260507163506 49 292 2.0 8.0 0.00 0.00 0.00 34 1013.7
20260507163010 49 307 3.0 8.0 0.00 0.00 0.00 33 1013.8
20260507162504 49 276 2.0 9.0 0.00 0.00 0.00 35 1013.8
20260507162004 49 316 5.0 9.0 0.00 0.00 0.00 34 1013.9
20260507161503 48 316 0.0 9.0 0.00 0.00 0.00 36 1013.9
20260507161002 48 79 5.0 9.0 0.00 0.00 0.00 34 1013.9
20260507160501 48 20 0.0 5.0 0.00 0.00 0.00 40 1013.9
20260507160100 48 323 2.0 6.0 0.00 0.00 0.00 38 1014.0
20260507155559 47 316 3.0 6.0 0.00 0.00 0.00 38 1013.9
20260507155106 47 292 0.0 9.0 0.00 0.00 0.00 39 1014.0
20260507154600 47 293 4.0 9.0 0.00 0.00 0.00 37 1014.0
20260507154059 47 281 1.0 5.0 0.00 0.00 0.00 43 1014.0
20260507153556 47 278 1.0 7.0 0.00 0.00 0.00 42 1014.1
20260507153056 46 200 3.0 9.0 0.00 0.00 0.00 43 1014.0
20260507152555 46 297 5.0 9.0 0.00 0.00 0.00 43 1014.1
20260507152053 45 167 0.0 10.0 0.00 0.00 0.00 42 1014.1
20260507151553 45 259 4.0 10.0 0.00 0.00 0.00 43 1014.1
20260507151051 46 288 4.0 8.0 0.00 0.00 0.00 44 1014.0
20260507150552 46 276 4.0 6.0 0.00 0.00 0.00 44 1014.1
20260507150049 45 315 0.0 8.0 0.00 0.00 0.00 47 1014.1
20260507145548 45 287 3.0 7.0 0.00 0.00 0.00 46 1014.1
20260507145049 45 274 3.0 7.0 0.00 0.00 0.00 47 1014.2
20260507144547 44 280 2.0 7.0 0.00 0.00 0.00 46 1014.2
20260507144048 44 297 2.0 7.0 0.00 0.00 0.00 47 1014.2
20260507143550 44 274 2.0 6.0 0.00 0.00 0.00 48 1014.2
20260507143045 44 290 2.0 5.0 0.00 0.00 0.00 49 1014.2
20260507142544 44 288 1.0 5.0 0.00 0.00 0.00 49 1014.3
20260507142043 44 293 2.0 5.0 0.00 0.00 0.00 51 1014.3
20260507141548 44 297 1.0 6.0 0.00 0.00 0.00 51 1014.3
20260507141042 44 316 2.0 6.0 0.00 0.00 0.00 51 1014.3
20260507140543 44 302 0.0 3.0 0.00 0.00 0.00 55 1014.3
20260507140043 43 316 0.0 3.0 0.00 0.00 0.00 56 1014.3
20260507135538 43 246 1.0 3.0 0.00 0.00 0.00 59 1014.3
20260507135037 43 283 0.0 4.0 0.00 0.00 0.00 62 1014.3
20260507134539 42 228 1.0 5.0 0.00 0.00 0.00 63 1014.4
20260507134035 42 253 2.0 5.0 0.00 0.00 0.00 65 1014.4
20260507133533 41 274 2.0 4.0 0.00 0.00 0.00 65 1014.4
20260507133035 41 269 2.0 4.0 0.00 0.00 0.00 67 1014.4
20260507132533 41 253 0.0 2.0 0.00 0.00 0.00 69 1014.5
20260507132028 40 293 0.0 2.0 0.00 0.00 0.00 71 1014.5
20260507131533 40 284 1.0 3.0 0.00 0.00 0.00 73 1014.5
20260507131028 39 271 0.0 4.0 0.00 0.00 0.00 73 1014.6
20260507130528 39 302 2.0 4.0 0.00 0.00 0.00 74 1014.5
20260507130024 39 275 0.0 1.0 0.00 0.00 0.00 78 1014.5
20260507125523 38 281 0.0 2.0 0.00 0.00 0.00 79 1014.5
20260507125022 37 276 0.0 2.0 0.00 0.00 0.00 79 1014.6
20260507124529 37 283 1.0 2.0 0.00 0.00 0.00 80 1014.6
20260507124019 36 290 0.0 2.0 0.00 0.00 0.00 82 1014.7
20260507123519 36 287 1.0 3.0 0.00 0.00 0.00 82 1014.6
20260507123017 35 284 1.0 3.0 0.00 0.00 0.00 82 1014.7
20260507122521 35 285 0.0 2.0 0.00 0.00 0.00 83 1014.7
20260507122019 35 288 0.0 2.0 0.00 0.00 0.00 84 1014.7
20260507121518 34 290 0.0 1.0 0.00 0.00 0.00 84 1014.6
20260507121018 34 291 0.0 1.0 0.00 0.00 0.00 85 1014.6
20260507120517 33 290 0.0 1.0 0.00 0.00 0.00 87 1014.5
20260507120018 33 293 0.0 1.0 0.00 0.00 0.00 89 1014.6
20260507115517 32 293 0.0 0.0 0.00 0.00 0.00 90 1014.5
20260507115016 31 293 0.0 1.0 0.00 0.00 0.00 91 1014.5
20260507114516 30 293 0.0 1.0 0.00 0.00 0.00 91 1014.6
20260507114016 29 293 0.0 0.0 0.00 0.00 0.00 90 1014.6
20260507113520 29 292 0.0 0.0 0.00 0.00 0.00 90 1014.6
20260507113016 29 293 0.0 0.0 0.00 0.00 0.00 90 1014.6
20260507112520 29 293 0.0 1.0 0.00 0.00 0.00 91 1014.6
20260507112015 29 293 0.0 1.0 0.00 0.00 0.00 91 1014.6
20260507111514 28 293 0.0 1.0 0.00 0.00 0.00 90 1014.5
20260507111018 28 293 0.0 1.0 0.00 0.00 0.00 89 1014.5
20260507110513 28 292 0.0 1.0 0.00 0.00 0.00 89 1014.6
20260507110113 28 284 0.0 0.0 0.00 0.00 0.00 88 1014.6
20260507105511 28 277 0.0 0.0 0.00 0.00 0.00 88 1014.6
20260507105013 28 277 0.0 0.0 0.00 0.00 0.00 86 1014.5
20260507104534 28 277 0.0 0.0 0.00 0.00 0.00 86 1014.5
20260507104009 29 277 0.0 0.0 0.00 0.00 0.00 86 1014.5
20260507103508 29 277 0.0 0.0 0.00 0.00 0.00 86 1014.6
20260507103009 29 277 0.0 0.0 0.00 0.00 0.00 86 1014.7
20260507102506 29 277 0.0 0.0 0.00 0.00 0.00 85 1014.7
20260507102007 29 266 0.0 0.0 0.00 0.00 0.00 83 1014.6
20260507101512 29 266 0.0 0.0 0.00 0.00 0.00 83 1014.6
20260507101008 29 266 0.0 0.0 0.00 0.00 0.00 82 1014.6
20260507100503 30 266 0.0 0.0 0.00 0.00 0.00 82 1014.6
20260507100006 30 266 0.0 0.0 0.00 0.00 0.00 82 1014.6
20260507095503 29 265 0.0 1.0 0.00 0.00 0.00 82 1014.7
20260507095003 30 257 0.0 1.0 0.00 0.00 0.00 82 1014.7
20260507094502 30 253 0.0 1.0 0.00 0.00 0.00 81 1014.7
20260507094001 30 259 0.0 1.0 0.00 0.00 0.00 81 1014.7
20260507093503 30 257 0.0 1.0 0.00 0.00 0.00 81 1014.8
20260507093100 30 249 0.0 1.0 0.00 0.00 0.00 81 1014.8
20260507092600 30 242 0.0 1.0 0.00 0.00 0.00 81 1014.7
20260507092102 30 242 1.0 1.0 0.00 0.00 0.00 81 1014.7
20260507091558 31 242 0.0 1.0 0.00 0.00 0.00 82 1014.8
20260507091056 31 249 0.0 1.0 0.00 0.00 0.00 83 1014.8
20260507090554 31 265 0.0 1.0 0.00 0.00 0.00 83 1014.8
20260507090059 32 267 0.0 2.0 0.00 0.00 0.00 82 1014.8
20260507085553 32 280 0.0 2.0 0.00 0.00 0.00 82 1014.9
20260507085053 32 276 0.0 2.0 0.00 0.00 0.00 82 1014.9
20260507084559 32 277 0.0 2.0 0.00 0.00 0.00 82 1014.9
20260507084054 32 278 0.0 2.0 0.00 0.00 0.00 81 1014.9
20260507083552 32 277 0.0 2.0 0.00 0.00 0.00 81 1014.9
20260507083052 32 285 1.0 2.0 0.00 0.00 0.00 80 1014.9
20260507082551 32 288 1.0 2.0 0.00 0.00 0.00 80 1014.8
20260507082050 32 285 0.0 2.0 0.00 0.00 0.00 80 1014.8
20260507081552 32 281 1.0 2.0 0.00 0.00 0.00 81 1014.8
20260507081050 33 285 1.0 2.0 0.00 0.00 0.00 81 1014.8
20260507080550 33 287 1.0 3.0 0.00 0.00 0.00 81 1014.8
20260507080105 32 301 1.0 3.0 0.00 0.00 0.00 80 1014.8
20260507075549 32 281 1.0 3.0 0.00 0.00 0.00 80 1014.8
20260507075048 32 285 1.0 3.0 0.00 0.00 0.00 79 1014.8
20260507074549 32 283 0.0 2.0 0.00 0.00 0.00 78 1014.8
20260507074047 32 263 0.0 2.0 0.00 0.00 0.00 78 1014.8
20260507073547 32 259 0.0 2.0 0.00 0.00 0.00 78 1014.8
20260507073051 32 270 0.0 4.0 0.00 0.00 0.00 79 1014.9
20260507072545 32 266 2.0 4.0 0.00 0.00 0.00 79 1015.1
20260507072045 32 274 0.0 2.0 0.00 0.00 0.00 78 1015.1
20260507071545 32 273 0.0 2.0 0.00 0.00 0.00 77 1015.1
20260507071044 32 273 1.0 2.0 0.00 0.00 0.00 77 1015.2
20260507070544 32 266 1.0 2.0 0.00 0.00 0.00 78 1015.1
20260507070044 32 266 1.0 2.0 0.00 0.00 0.00 78 1015.2
20260507065544 32 249 0.0 1.0 0.00 0.00 0.00 78 1015.1
20260507065040 33 282 0.0 1.0 0.00 0.00 0.00 79 1015.1
20260507064540 33 283 0.0 1.0 0.00 0.00 0.00 80 1015.1
20260507064039 33 285 0.0 1.0 0.00 0.00 0.00 81 1015.2
20260507063539 33 277 0.0 1.0 0.00 0.00 0.00 80 1015.3
20260507063037 33 277 0.0 1.0 0.00 0.00 0.00 79 1015.3
20260507062536 34 281 0.0 1.0 0.00 0.00 0.00 80 1015.3
20260507062035 34 277 0.0 1.0 0.00 0.00 0.00 80 1015.4
20260507061535 34 276 0.0 1.0 0.00 0.00 0.00 81 1015.5
20260507061034 34 276 0.0 0.0 0.00 0.00 0.00 80 1015.5
20260507060533 34 276 0.0 1.0 0.00 0.00 0.00 78 1015.5
20260507060038 34 276 0.0 1.0 0.00 0.00 0.00 78 1015.6
20260507055532 34 283 0.0 1.0 0.00 0.00 0.00 78 1015.7
20260507055033 34 285 0.0 1.0 0.00 0.00 0.00 78 1015.6
20260507054537 34 285 0.0 1.0 0.00 0.00 0.00 77 1015.6
20260507054030 35 285 0.0 1.0 0.00 0.00 0.00 77 1015.7
20260507053529 35 290 0.0 1.0 0.00 0.00 0.00 77 1015.7
20260507053028 35 333 0.0 0.0 0.00 0.00 0.00 75 1015.8
20260507052527 35 333 0.0 0.0 0.00 0.00 0.00 73 1015.8
20260507052026 35 333 0.0 0.0 0.00 0.00 0.00 70 1015.8
20260507051524 36 333 0.0 0.0 0.00 0.00 0.00 68 1015.9
20260507051024 36 333 0.0 1.0 0.00 0.00 0.00 68 1015.9
20260507050522 36 333 0.0 2.0 0.00 0.00 0.00 68 1015.9
20260507050026 36 311 0.0 1.0 0.00 0.00 0.00 68 1015.9
20260507045521 36 311 0.0 1.0 0.00 0.00 0.00 67 1016.0
20260507045020 37 318 0.0 1.0 0.00 0.00 0.00 67 1015.9
20260507044521 37 295 0.0 1.0 0.00 0.00 0.00 66 1016.0
20260507044020 37 295 0.0 1.0 0.00 0.00 0.00 66 1016.0
20260507043520 37 299 0.0 1.0 0.00 0.00 0.00 66 1016.1
20260507043023 37 288 0.0 0.0 0.00 0.00 0.00 66 1016.0
20260507042519 37 288 0.0 1.0 0.00 0.00 0.00 66 1016.0
20260507042019 37 288 0.0 1.0 0.00 0.00 0.00 66 1016.1
20260507041519 37 288 0.0 1.0 0.00 0.00 0.00 66 1016.1
20260507041018 37 315 0.0 1.0 0.00 0.00 0.00 66 1016.1
20260507040519 37 315 0.0 1.0 0.00 0.00 0.00 65 1016.2
20260507040018 38 9 0.0 0.0 0.00 0.00 0.00 64 1016.2
20260507035518 38 10 0.0 0.0 0.00 0.00 0.00 63 1016.3
20260507035018 38 10 0.0 0.0 0.00 0.00 0.00 62 1016.3
20260507034520 39 10 0.0 1.0 0.00 0.00 0.00 61 1016.2
20260507034017 39 10 0.0 1.0 0.00 0.00 0.00 61 1016.2
20260507033517 39 11 0.0 1.0 0.00 0.00 0.00 60 1016.2
20260507033016 39 315 0.0 1.0 0.00 0.00 0.00 60 1016.3
20260507032516 39 330 0.0 1.0 0.00 0.00 0.00 60 1016.3
20260507032015 39 312 0.0 1.0 0.00 0.00 0.00 60 1016.3
20260507031515 39 307 0.0 1.0 0.00 0.00 0.00 60 1016.3
20260507031016 39 308 0.0 1.0 0.00 0.00 0.00 60 1016.3
20260507030516 39 316 0.0 1.0 0.00 0.00 0.00 60 1016.4
20260507030019 39 339 0.0 1.0 0.00 0.00 0.00 60 1016.3
20260507025515 39 339 0.0 0.0 0.00 0.00 0.00 61 1016.4
20260507025015 39 311 0.0 0.0 0.00 0.00 0.00 61 1016.4
20260507024515 39 311 0.0 0.0 0.00 0.00 0.00 61 1016.4
20260507024017 39 311 0.0 0.0 0.00 0.00 0.00 60 1016.3
20260507023516 39 311 0.0 0.0 0.00 0.00 0.00 60 1016.4
20260507023014 39 311 0.0 0.0 0.00 0.00 0.00 59 1016.4
20260507022514 39 311 0.0 1.0 0.00 0.00 0.00 57 1016.4